Home   Weather   Waterbury   Past weeks

Flag for USA Past Weather in Waterbury, Connecticut, USA — Yesterday and Last 2 Weeks

Now
54 °F

Cool.


Feels Like: 50 °F
Forecast: 54 / 67 °F
Wind: 13 mph from Northeast

Location: Oxford

Current Time: Sep 29, 2016 at 6:11:39 AM

Latest Report: Sep 29, 2016 at 5:35 AM


Visibility: 10 mi

Pressure: 30.35 "Hg

Humidity: 72%

Dew Point: 45 °F

Location of WaterburyLocation

Past Weather in Waterbury — Graph

°F

Waterbury Temperature Yesterday

Maximum temperature yesterday: 61 °F (at 11:50 AM)
Minimum temperature yesterday: 52 °F (at 1:55 AM)
Average temperature yesterday: 56 °F

High & Low Weather Summary for the Past Weeks

 TemperatureHumidityPressure
High84 °F (Sep 14, 1:50 PM)94% (Sep 16, 5:35 AM)30.38 "Hg (Sep 16, 5:35 AM)
Low39 °F (Sep 26, 6:00 AM)24% (Sep 25, 2:50 PM)29.91 "Hg (Sep 27, 5:15 AM)
Average61 °F72%30.15 "Hg
* Reported Sep 14 4:15 AM — Sep 29 4:55 AM, Waterbury, Weather by CustomWeather, © 2016

Note: Actual official high and low records may vary slightly from our data, if they occured in-between our weather recording intervals... More about our weather records

Advertising

Waterbury Weather History for the Previous 24 Hours

Scroll right to see more
 ConditionsComfort  
Time TempWeatherWind HumidityBarometerVisibility
4:55 AM
Thu, Sep 29
54 °FCool.13 mph72%30.32 "Hg10 mi
4:35 AM54 °FCool.14 mph77%30.32 "Hg10 mi
4:15 AM54 °FCool.17 mph72%30.32 "Hg10 mi
3:55 AM54 °FCool.20 mph77%30.31 "Hg10 mi
3:35 AM55 °FCool.17 mph72%30.31 "Hg10 mi
3:15 AM55 °FCool.13 mph72%30.30 "Hg10 mi
2:55 AM55 °FCool.16 mph72%30.30 "Hg10 mi
2:35 AM55 °FCool.16 mph72%30.31 "Hg10 mi
2:15 AM55 °FCool.14 mph72%30.31 "Hg10 mi
1:55 AM55 °FCool.13 mph72%30.31 "Hg10 mi
1:35 AM55 °FCool.16 mph72%30.29 "Hg10 mi
1:15 AM55 °FCool.12 mph72%30.30 "Hg10 mi
12:55 AM55 °FCool.13 mph72%30.29 "Hg10 mi
12:35 AM55 °FCool.13 mph77%30.30 "Hg10 mi
12:15 AM55 °FCool.10 mph72%30.31 "Hg9 mi
11:55 PM
Wed, Sep 28
55 °FCool.13 mph72%30.30 "Hg10 mi
11:35 PM54 °FCool.13 mph77%30.30 "Hg10 mi
11:15 PM54 °FCool.15 mph77%30.29 "Hg10 mi
10:55 PM54 °FCool.13 mph77%30.30 "Hg10 mi
10:35 PM54 °FCool.14 mph77%30.30 "Hg10 mi
10:15 PM54 °FCool.10 mph77%30.30 "Hg10 mi
9:55 PM54 °FCool.13 mph77%30.29 "Hg10 mi
9:35 PM54 °FCool.13 mph77%30.28 "Hg10 mi
9:15 PM54 °FCool.12 mph77%30.29 "Hg10 mi
8:50 PM55 °FOvercast.7 mph72%30.28 "Hg10 mi
7:50 PM55 °FOvercast.13 mph72%30.26 "Hg10 mi
6:50 PM55 °FOvercast.13 mph77%30.23 "Hg10 mi
5:50 PM57 °FOvercast.9 mph72%30.21 "Hg10 mi
4:50 PM57 °FOvercast.12 mph72%30.21 "Hg10 mi
3:50 PM59 °FOvercast.12 mph68%30.20 "Hg10 mi
2:50 PM59 °FOvercast.10 mph68%30.20 "Hg10 mi
1:50 PM61 °FOvercast.12 mph63%30.20 "Hg10 mi
12:50 PM61 °FOvercast.13 mph68%30.18 "Hg10 mi
11:50 AM61 °FOvercast.8 mph68%30.18 "Hg10 mi
10:45 AM59 °FOvercast.12 mph77%30.17 "Hg10 mi
9:55 AM59 °FMostly cloudy.8 mph82%30.17 "Hg10 mi
8:45 AM57 °FFog.9 mph88%30.15 "Hg5 mi
7:50 AM55 °FFog.9 mph94%30.13 "Hg0 mi
6:50 AM55 °FFog.12 mph94%30.10 "Hg1 mi
Weather by CustomWeather, © 2016

See weather overviewHow to use our weather pages